Location: Massa
(44.0170°N, 10.1500°E)
Time: 03:55:40
(UTC+01:00)

ISS - Visible Passes

Search period start: 23 January 2019 00:00
Search period end: 02 February 2019 00:00
Orbit: 404 x 411 km, 51.6° (Epoch: 23 January)

Date Brightness Start Highest point End Pass type
(mag) Time Alt. Az. Time Alt. Az. Time Alt. Az.
23 Jan -3.0 18:37:10 10° SSW 18:40:14 36° SE 18:41:04 30° ESE visible
23 Jan -0.2 20:13:38 10° W 20:13:48 11° W 20:13:48 11° W visible
24 Jan -2.1 17:46:30 10° S 17:49:02 21° SE 17:51:35 10° E visible
24 Jan -2.9 19:22:04 10° WSW 19:24:46 49° WNW 19:24:46 49° WNW visible
25 Jan -3.9 18:30:39 10° SW 18:33:57 85° SSE 18:35:40 26° ENE visible
25 Jan -0.5 20:07:56 10° WNW 20:08:24 13° WNW 20:08:24 13° WNW visible
26 Jan -2.6 19:16:12 10° W 19:19:13 33° NNW 19:19:13 33° NNW visible
27 Jan -3.1 18:24:33 10° W 18:27:45 47° NNW 18:30:00 18° NE visible
27 Jan -0.7 20:02:11 10° WNW 20:02:43 13° NW 20:02:43 13° NW visible
28 Jan -2.1 19:10:27 10° WNW 19:13:14 24° N 19:13:26 24° N visible
29 Jan -2.4 18:18:41 10° W 18:21:38 29° NNW 18:24:08 13° NE visible
29 Jan -0.8 19:56:15 10° NW 19:56:51 13° NW 19:56:51 13° NW visible
30 Jan -2.0 19:04:36 10° NW 19:07:13 21° N 19:07:31 21° N visible
31 Jan -2.1 18:12:52 10° WNW 18:15:34 23° N 18:18:11 11° NE visible
31 Jan -1.1 19:50:01 10° NW 19:50:54 15° NW 19:50:54 15° NW visible
01 Feb -2.2 18:58:31 10° NW 19:01:10 22° N 19:01:34 21° NNE visible
